When you browse on this site, cookies collect data to enhance your experience and personalize the content and advertising you see.
Visit our Privacy Policy to learn more. By continuing to use the site, you agree to this use of cookies and data.
  • In Romania
  • List of Countries
  • For 7 days
  • Water Temperature
  • Satellite Maps
  • Weather Map
  • Weather Widgets
  • user-avatar
    Login

    Hourly Weather Newcastle

    Today, 19 November, Monday

    Time Temperature Precipitation Wind Pressure Humidity
    00:00 +15°C° 0 mm 2 mps 765 mmHg 84%
    01:00 +16°C° 0 mm 2 mps 765 mmHg 82%
    02:00 +15°C° 0 mm 2 mps 765 mmHg 84%
    03:00 +15°C° 0 mm 2 mps 765 mmHg 86%
    04:00 +14°C° 0 mm 1 mps 765 mmHg 87%
    05:00 +16°C° 0 mm 1 mps 765 mmHg 80%
    06:00 +19°C° 0 mm 1 mps 765 mmHg 74%
    07:00 +20°C° 0 mm 1 mps 765 mmHg 67%
    08:00 +21°C° 0 mm 2 mps 765 mmHg 61%
    09:00 +23°C° 0 mm 2 mps 764 mmHg 55%
    10:00 +24°C° 0 mm 3 mps 764 mmHg 49%
    11:00 +25°C° 0 mm 3 mps 764 mmHg 49%
    12:00 +25°C° 0 mm 3 mps 763 mmHg 50%
    13:00 +25°C° 0 mm 4 mps 763 mmHg 50%
    14:00 +25°C° 0 mm 4 mps 763 mmHg 50%
    15:00 +25°C° 0 mm 4 mps 762 mmHg 51%
    16:00 +25°C° 0 mm 4 mps 762 mmHg 52%
    17:00 +22°C° 0 mm 4 mps 762 mmHg 58%
    18:00 +20°C° 0 mm 4 mps 762 mmHg 65%
    19:00 +18°C° 0 mm 3 mps 762 mmHg 71%
    20:00 +18°C° 0 mm 3 mps 762 mmHg 74%
    21:00 +17°C° 0 mm 3 mps 762 mmHg 77%
    22:00 +16°C° 0 mm 3 mps 762 mmHg 80%
    23:00 +16°C° 0 mm 3 mps 762 mmHg 83%

    Tomorrow, 20 November, Tuesday

    Time Temperature Precipitation Wind Pressure Humidity
    00:00 +14°C° 0 mm 3 mps 762 mmHg 87%
    01:00 +14°C° 0 mm 2 mps 762 mmHg 90%
    02:00 +14°C° 0 mm 2 mps 761 mmHg 92%
    03:00 +14°C° 0 mm 2 mps 761 mmHg 93%
    04:00 +14°C° 0 mm 2 mps 761 mmHg 95%
    05:00 +16°C° 0 mm 2 mps 761 mmHg 87%
    06:00 +17°C° 0 mm 2 mps 761 mmHg 79%
    07:00 +19°C° 0 mm 3 mps 761 mmHg 70%
    08:00 +22°C° 0 mm 3 mps 760 mmHg 62%
    09:00 +25°C° 0 mm 3 mps 760 mmHg 54%
    10:00 +28°C° 0 mm 3 mps 759 mmHg 46%
    11:00 +29°C° 0 mm 3 mps 759 mmHg 43%
    12:00 +30°C° 0 mm 4 mps 758 mmHg 40%
    13:00 +32°C° 0 mm 4 mps 757 mmHg 38%
    14:00 +30°C° 0 mm 5 mps 757 mmHg 44%
    15:00 +28°C° 0 mm 5 mps 756 mmHg 51%
    16:00 +26°C° 0 mm 6 mps 755 mmHg 58%
    17:00 +24°C° 0 mm 6 mps 755 mmHg 62%
    18:00 +23°C° 0 mm 6 mps 755 mmHg 65%
    19:00 +23°C° 0 mm 6 mps 754 mmHg 69%
    20:00 +22°C° 0 mm 6 mps 755 mmHg 72%
    21:00 +22°C° 0 mm 6 mps 755 mmHg 74%
    22:00 +21°C° 0 mm 5 mps 755 mmHg 76%
    23:00 +21°C° 0.1 mm 5 mps 755 mmHg 80%

    Day after tomorrow, 21 November, Wednesday

    Time Temperature Precipitation Wind Pressure Humidity
    00:00 +20°C° 0.1 mm 4 mps 754 mmHg 84%
    01:00 +20°C° 0.1 mm 4 mps 753 mmHg 89%
    02:00 +19°C° 0 mm 4 mps 752 mmHg 90%
    03:00 +19°C° 0 mm 3 mps 752 mmHg 91%
    04:00 +18°C° 0 mm 3 mps 752 mmHg 92%
    05:00 +20°C° 0 mm 3 mps 752 mmHg 87%
    06:00 +21°C° 0 mm 3 mps 751 mmHg 81%
    07:00 +24°C° 0 mm 2 mps 751 mmHg 75%
    08:00 +27°C° 0 mm 3 mps 751 mmHg 66%
    09:00 +29°C° 0 mm 3 mps 751 mmHg 56%
    10:00 +33°C° 0 mm 3 mps 750 mmHg 46%
    11:00 +33°C° 0.2 mm 4 mps 750 mmHg 46%
    12:00 +34°C° 0.2 mm 4 mps 750 mmHg 45%
    13:00 +34°C° 0.2 mm 4 mps 749 mmHg 44%
    14:00 +32°C° 0.3 mm 4 mps 749 mmHg 49%
    15:00 +30°C° 0.3 mm 3 mps 749 mmHg 54%
    16:00 +28°C° 0.3 mm 3 mps 748 mmHg 60%
    17:00 +28°C° 0 mm 4 mps 749 mmHg 61%
    18:00 +27°C° 0 mm 4 mps 749 mmHg 63%
    19:00 +26°C° 0 mm 5 mps 749 mmHg 65%
    20:00 +25°C° 0 mm 4 mps 749 mmHg 68%
    21:00 +23°C° 0 mm 4 mps 750 mmHg 71%
    22:00 +22°C° 0 mm 4 mps 750 mmHg 74%
    23:00 +21°C° 0.1 mm 3 mps 749 mmHg 79%

    22 November, Thursday

    Time Temperature Precipitation Wind Pressure Humidity
    00:00 +20°C° 0.1 mm 3 mps 749 mmHg 84%
    01:00 +19°C° 0.1 mm 3 mps 749 mmHg 89%
    02:00 +19°C° 0 mm 3 mps 748 mmHg 90%
    03:00 +19°C° 0 mm 3 mps 748 mmHg 91%
    04:00 +18°C° 0 mm 4 mps 748 mmHg 92%
    05:00 +20°C° 0 mm 4 mps 748 mmHg 82%
    06:00 +21°C° 0 mm 5 mps 748 mmHg 72%
    07:00 +23°C° 0 mm 6 mps 748 mmHg 61%
    08:00 +24°C° 0 mm 6 mps 748 mmHg 51%
    09:00 +26°C° 0 mm 7 mps 748 mmHg 40%
    10:00 +27°C° 0 mm 8 mps 748 mmHg 29%
    11:00 +27°C° 0 mm 8 mps 748 mmHg 25%
    12:00 +26°C° 0 mm 9 mps 748 mmHg 22%
    13:00 +26°C° 0 mm 9 mps 747 mmHg 19%
    14:00 +24°C° 0 mm 9 mps 748 mmHg 19%
    15:00 +23°C° 0 mm 8 mps 748 mmHg 20%
    16:00 +23°C° 0 mm 8 mps 748 mmHg 21%
    17:00 +21°C° 0 mm 8 mps 749 mmHg 23%
    18:00 +20°C° 0 mm 7 mps 750 mmHg 26%
    19:00 +17°C° 0 mm 6 mps 750 mmHg 29%
    20:00 +16°C° 0 mm 7 mps 751 mmHg 32%
    21:00 +16°C° 0 mm 8 mps 751 mmHg 36%
    22:00 +15°C° 0 mm 9 mps 752 mmHg 40%
    23:00 +15°C° 0 mm 9 mps 752 mmHg 42%

    23 November, Friday

    Time Temperature Precipitation Wind Pressure Humidity
    00:00 +13°C° 0 mm 9 mps 752 mmHg 45%
    01:00 +13°C° 0 mm 9 mps 751 mmHg 48%
    02:00 +13°C° 0 mm 9 mps 752 mmHg 48%
    03:00 +13°C° 0 mm 8 mps 752 mmHg 49%
    04:00 +12°C° 0 mm 8 mps 752 mmHg 50%
    05:00 +13°C° 0 mm 8 mps 752 mmHg 47%
    06:00 +15°C° 0 mm 8 mps 753 mmHg 45%
    07:00 +16°C° 0 mm 8 mps 753 mmHg 43%
    08:00 +18°C° 0 mm 8 mps 753 mmHg 38%
    09:00 +20°C° 0 mm 7 mps 752 mmHg 34%
    10:00 +22°C° 0 mm 7 mps 752 mmHg 29%
    11:00 +23°C° 0 mm 7 mps 751 mmHg 27%
    12:00 +24°C° 0 mm 7 mps 750 mmHg 24%
    13:00 +26°C° 0 mm 7 mps 750 mmHg 22%
    14:00 +24°C° 0 mm 8 mps 750 mmHg 22%
    15:00 +24°C° 0 mm 8 mps 750 mmHg 22%
    16:00 +23°C° 0 mm 8 mps 750 mmHg 22%
    17:00 +21°C° 0 mm 8 mps 751 mmHg 25%
    18:00 +18°C° 0 mm 7 mps 751 mmHg 28%
    19:00 +16°C° 0 mm 7 mps 752 mmHg 31%
    20:00 +16°C° 0 mm 7 mps 752 mmHg 31%
    21:00 +16°C° 0 mm 8 mps 753 mmHg 30%
    22:00 +15°C° 0 mm 8 mps 753 mmHg 30%
    23:00 +15°C° 0 mm 8 mps 753 mmHg 31%

    24 November, Saturday

    Time Temperature Precipitation Wind Pressure Humidity
    00:00 +15°C° 0 mm 8 mps 752 mmHg 33%
    01:00 +15°C° 0 mm 8 mps 752 mmHg 35%
    02:00 +15°C° 0 mm 8 mps 752 mmHg 36%
    03:00 +15°C° 0 mm 8 mps 752 mmHg 37%
    04:00 +15°C° 0 mm 8 mps 752 mmHg 39%
    05:00 +16°C° 0 mm 8 mps 752 mmHg 38%
    06:00 +16°C° 0 mm 9 mps 752 mmHg 37%
    07:00 +17°C° 0 mm 9 mps 752 mmHg 36%
    08:00 +21°C° 0 mm 8 mps 752 mmHg 32%
    09:00 +23°C° 0 mm 7 mps 752 mmHg 29%
    10:00 +26°C° 0 mm 7 mps 751 mmHg 25%
    11:00 +28°C° 0 mm 6 mps 751 mmHg 22%
    12:00 +29°C° 0 mm 6 mps 750 mmHg 19%
    13:00 +32°C° 0 mm 5 mps 749 mmHg 16%
    14:00 +32°C° 0 mm 5 mps 749 mmHg 15%
    15:00 +32°C° 0 mm 5 mps 749 mmHg 15%
    16:00 +32°C° 0 mm 4 mps 748 mmHg 14%
    17:00 +29°C° 0 mm 4 mps 749 mmHg 18%
    18:00 +27°C° 0 mm 3 mps 749 mmHg 21%
    19:00 +24°C° 0 mm 2 mps 750 mmHg 24%
    20:00 +24°C° 0 mm 2 mps 750 mmHg 28%
    21:00 +23°C° 0 mm 2 mps 751 mmHg 32%
    22:00 +21°C° 0 mm 2 mps 751 mmHg 35%
    23:00 +19°C° 0.1 mm 2 mps 750 mmHg 48%
    Show more